Location: Rioux
(40.7500°S, 175.7500°E)
Time: 10:28:02
(UTC+00:00)

Cosmos 2369 Rocket - Pass Details

Date: 12 June 2024
Orbit: 828 x 852 km, 71.0° (Epoch: 20 July)

Event Time Altitude Azimuth Distance (km) Brightness Sun altitude
Exits shadow 17:51:45 36° 251° (WSW) 1,333 2.7 -19.5°
Maximum altitude 17:53:10 42° 286° (WNW) 1,197 2.6 -19.3°
Drops below altitude 10° 17:58:26 10° 355° (N) 2,454 4.7 -18.3°
Sets 18:00:58 0° 1° (N) 3,377 5.6 -17.8°
